Location: Britannia Beach
(45.3521°N, 62.9901°W)
Time: 09:25:03
(UTC+00:00)

N. Korean satellite - Pass Details

Date: 05 August 2021
Orbit: 448 x 498 km, 97.3° (Epoch: 20 September)

Event Time Altitude Azimuth Distance (km) Brightness Sun altitude
Rises 08:23:53 0° 34° (NE) 2,540 11.6 -6.6°
Reaches altitude 10° 08:27:16 10° 69° (ENE) 1,639 11.0 -6.1°
Maximum altitude 08:28:30 12° 89° (E) 1,540 10.2 -5.9°
Drops below altitude 10° 08:29:43 10° 110° (ESE) 1,623 9.8 -5.7°
Sets 08:33:00 0° 145° (SE) 2,477 10.2 -5.2°
